默认 日期 大小 文件数 浏览量 最新下载 xml
jules磁力链接相关资源由用户搜索指令自动获取,结果来源于网络,本站不存储任何资料,亦不承担任何责任,请于24小时内删除,搜索到4477个磁力,显示前4000条数据,用时4ms。
    {"anal_provocateur_scene3_sd.mp4": 217613816}
创建时间: 2018-11-13 19:25:28 大小:207.53 MB 文件数量:1 热度:24 最近下载:2025-09-23 07:35:03
    {"Cover.jpg": 82061, "aroundtheworldineightydays_01_verne.mp3": 9890126, "aroundtheworldineightydays_02_verne.mp3": 7938382, "aroundtheworldineightydays_03_verne.mp3": 12867918, "aroundtheworldineightydays_04_verne.mp3": 6402382, " ...
创建时间: 2018-11-13 21:12:35 大小:387.54 MB 文件数量:75 热度:8 最近下载:2024-09-01 16:19:02
    ... ": 404050, "Small Front.jpg": 240959, "Jules et Jim - La Cloche Thibetaine ... .log": 893, "Georges Delerue - Jules et Jim - La Cloche Thibetaine ... .cue": 2259, "Georges Delerue - Jules et Jim - La Cloche Thibetaine ...
创建时间: 2018-11-14 05:28:23 大小:263.12 MB 文件数量:11 热度:9 最近下载:2025-09-19 04:57:02
    ... amour 4k.mp4": 6519207254, "Jules Jordan_18-04 11 jada stevens ... 4k.mp4": 5910152202, "Jules Jordan_18-03 27 victoria june ... 4k.mp4": 8001104072, "Jules Jordan_18-03 30 kissa sins ... nappi 4k.mp4": 9225399601, "Jules Jordan_18-04 11 jada stevens ...
创建时间: 2018-11-14 05:28:58 大小:50.09 GB 文件数量:23 热度:24 最近下载:2025-01-29 21:57:06
    {"asshole.exploration.mp4": 1470546465}
创建时间: 2018-11-14 11:58:20 大小:1.37 GB 文件数量:1 热度:9 最近下载:2024-09-30 16:27:02
    {"Torrent downloaded from Demonoid.com.txt": 47, "Gary Jules - (2006) Gary Jules [flac].rar": 252003984}
创建时间: 2018-11-14 15:37:54 大小:240.33 MB 文件数量:2 热度:7 最近下载:2023-04-15 04:20:05
    {"ass_worship_11_scene_6_720.mp4": 892260515}
创建时间: 2018-11-14 21:53:23 大小:850.93 MB 文件数量:1 热度:21 最近下载:2025-10-04 16:22:05
    {"Slut Puppies 12.mp4": 2333685568, "Torrent Downloaded From ProstyleX.com.nfo": 38}
创建时间: 2018-11-14 22:45:30 大小:2.17 GB 文件数量:2 热度:11 最近下载:2025-01-20 01:52:04
    {"Amia Miley.mp4": 353821687, "Nikki Benz.mp4": 587420297, "August Ames.mp4": 572554767, "Rachel Starr.mp4": 468649491}
创建时间: 2018-11-15 08:21:47 大小:1.85 GB 文件数量:4 热度:13 最近下载:2024-06-30 16:18:02
    ... rossi 4k.mp4": 4249910457, "Jules Jordan_16-10 16 veronica avluv ... .mp4": 2020592339, "Jules Jordan_16-10 06 cadence lux ... shae 4k.mp4": 4875127839, "Jules Jordan_16-10 20 melissa moore ... watson 4k.mp4": 3452991526, "Jules Jordan_16-10 22 savana styles ...
创建时间: 2018-11-15 09:44:15 大小:55.95 GB 文件数量:44 热度:73 最近下载:2025-09-11 14:17:03
    {"Rina Ellis.mp4": 1200121138, "Ivy LeBelle.mp4": 1397198796, "Olive Glass.mp4": 783736883, "Victoria June.mp4": 923365908}
创建时间: 2018-11-15 11:55:42 大小:4.01 GB 文件数量:4 热度:55 最近下载:2025-09-02 07:05:01
    {"MILFs Illustrated 2 - sc1 Lisa Ann.mp4": 257556017, "MILFs Illustrated 2 - sc5 Lisa Ann.mp4": 281715440, "MILFs Illustrated 2 - sc3 Nikki Benz.mp4": 410841705, "MILFs Illustrated 2 - sc4 Nadia Styles.mp4": 498840172, "MILFs Illustrated 2 - sc2 Richelle ...
创建时间: 2018-11-15 16:06:54 大小:1.69 GB 文件数量:5 热度:15 最近下载:2025-03-25 17:59:04
    {"Raw 34 cd1.mp4": 1246188905, "Raw 34 cd2.mp4": 1175479715, "Torrent Downloaded From ProstyleX.com.nfo": 38}
创建时间: 2018-11-15 22:54:17 大小:2.26 GB 文件数量:3 热度:15 最近下载:2025-08-06 01:46:04
    ... 54 Photos) (10).jpg": 182125, "Jules Liesl See Through Boobs (54 ... Photos) (11).jpg": 207224, "Jules Liesl See Through Boobs (54 ... Photos) (12).jpg": 185322, "Jules Liesl See Through Boobs (54 ... Photos) (13).jpg": 209181, "Jules Liesl See Through Boobs (54 ...
创建时间: 2018-11-15 23:50:56 大小:11.02 MB 文件数量:54 热度:7 最近下载:2025-02-25 07:57:01
    {"Screen Shots": {"Back_Cover.jpg": 82055, "Front_Cover.jpg": 54299, "Alex Grey.mp4.jpg": 328563, "Jojo Kiss.mp4.jpg": 342820, "Trisha Parks.mp4.jpg": 365552, "Kimmy Granger.mp4.jpg": 288690}, "Alex Grey.mp4": 432290431, "Jojo Kiss.mp4": 467514901, "Trisha ...
创建时间: 2018-11-16 00:33:02 大小:1.74 GB 文件数量:10 热度:14 最近下载:2024-09-30 16:27:02
    {"faces_loaded_scene6_720.mp4": 636026571}
创建时间: 2018-11-16 05:23:23 大小:606.56 MB 文件数量:1 热度:9 最近下载:2024-09-30 16:27:01
    {"Oil Overload 11": {"skin.mp4": 447798233, "Aaliyah.mp4": 505964566, "AlinaLi.mp4": 563933506, "veronica.mp4": 569878533, "RileySara.mp4": 747494516, "AjApplegate.mp4": 431500583}}
创建时间: 2018-11-16 06:57:26 大小:3.04 GB 文件数量:6 热度:17 最近下载:2024-12-26 21:56:04
    {"Readme.txt": 743, "Ebook Series - Scifan - Jules Verne - Barsac Mission - 01 of 02 - Into the Niger Bend.epub": 212333, "Ebook Series - Scifan - Jules Verne - Barsac Mission - 02 of 02 - City in the Sahara, The.epub": 232786}
创建时间: 2018-11-16 09:22:21 大小:435.41 KB 文件数量:3 热度:5 最近下载:2023-04-15 19:00:27
    ... ": {"01. VA - Judge Jules - Trance Anthems (Continuous Mix ... }, "CD2": {"01. VA - Judge Jules - Trance Anthems (Continuous Mix 2 ... "CD3": {"01. VA - Judge Jules - Trance Anthems (Continuous Mix 3 ... 6384466}, "CD6": {"10. Judge Jules - Laid Bare.mp3": 15725583, " ...
创建时间: 2018-11-16 12:03:42 大小:1.02 GB 文件数量:57 热度:5 最近下载:2023-04-15 20:20:03
    ... 58333507, "31. Mike Saint-Jules - Space Renegade (Original Mix).flac ... "30. Eco & Mike Saint-Jules - Azure (Original Mix Edit).flac ... 33719991, "26. Mike Saint-Jules - The Final Frontier (Original ... ": 63045312, "23. Mike Saint-Jules feat. Sandel - Broken Turn ...
创建时间: 2018-11-16 14:02:34 大小:4.15 GB 文件数量:59 热度:10 最近下载:2025-07-07 20:14:01